Home > Time Zones > World Clock > Weather > India > Unnao > Past weeks

Flag Weather past 2 weeks in Unnao, Uttar Pradesh, India

Now
55 °F

Fog.


Feels Like: 55 °F
Forecast: 59 / 86 °F
Wind: No wind

Location: Lucknow / Amausi

Current Time: Nov 28, 2014 at 10:04:14 AM

Latest Report: Nov 28, 2014 at 8:30 AM


Visibility: 1 mi

Pressure: 29.98 "Hg

Humidity: 82%

Dew point: 50 °F

Location of UnnaoLocation

Historic Weather in Unnao — Graph

°F

Unnao temperature yesterday

Maximum temperature yesterday: 81 °F (at 2:30 PM)
Minimum temperature yesterday: 50 °F (at 5:00 AM)
Average temperature yesterday: 64 °F

Past Weeks' High & Low Weather Summary

 TemperatureHumidityPressure
High82 °F (Nov 13, 2:00 PM)100% (Nov 28, 5:30 AM)30.80 "Hg (Nov 28, 5:30 AM)
Low48 °F (Nov 25, 6:00 AM)24% (Nov 15, 2:30 PM)29.77 "Hg (Nov 26, 3:30 PM)
Average67 °F59%29.95 "Hg
* Reported Nov 13 8:30 AM — Nov 28 8:30 AM, Unnao, Weather by CustomWeather, © 2014

Note: Actual official high and low records may vary slightly from our data, if they occured in-between our weather recording intervals... More about our weather records

Advertising

Unnao weather history for previous 24 hours

 ConditionsComfort  
Time TempWeatherWind HumidityBarometerVisibility
8:30 AM
Nov 28
55 °FFog.No wind82%29.98 "Hg1 mi
8:00 AM52 °FFog.No wind88%29.95 "Hg1 mi
7:30 AM52 °FFog.No wind88%29.95 "Hg1 mi
6:30 AM52 °FFog.No wind88%29.92 "Hg1 mi
5:30 AM52 °FFog.No wind100%29.89 "Hg1 mi
5:00 AM54 °FFog.No wind94%29.89 "Hg1 mi
4:00 AM55 °FFog.No wind94%29.86 "Hg1 mi
3:00 AM55 °FFog.No wind94%29.86 "Hg1 mi
2:00 AM57 °FFog.No wind88%29.86 "Hg1 mi
1:00 AM57 °FFog.No wind88%29.89 "Hg1 mi
11:00 PM
Nov 27
59 °FFog.No wind82%29.89 "Hg1 mi
9:00 PM61 °FFog.No wind77%29.89 "Hg1 mi
7:00 PM66 °FHaze.No wind73%29.86 "Hg2 mi
6:30 PM66 °FHaze.No wind73%29.86 "Hg2 mi
6:00 PM70 °FHaze.No wind64%29.86 "Hg2 mi
5:30 PM72 °FHaze.No wind61%29.83 "Hg2 mi
5:00 PM75 °FHaze.No wind50%29.83 "Hg2 mi
4:30 PM77 °FHaze.No wind39%29.83 "Hg2 mi
4:00 PM79 °FHaze.No wind37%29.83 "Hg2 mi
3:00 PM81 °FHaze.No wind34%29.83 "Hg2 mi
2:30 PM81 °FHaze.No wind34%29.86 "Hg2 mi
1:30 PM77 °FHaze.No wind42%29.92 "Hg2 mi
1:00 PM77 °FHaze.No wind42%29.89 "Hg2 mi
12:30 PM77 °FHaze.No wind42%29.89 "Hg2 mi
12:00 PM75 °FHaze.No wind41%29.92 "Hg2 mi
11:00 AM70 °FHaze.No wind46%29.95 "Hg1 mi
10:00 AM64 °FFog.No wind56%29.95 "Hg1 mi
Weather by CustomWeather, © 2014

See weather overviewHow to use our weather pages